TimeCST,TemperatureF,Dew PointF,Humidity,Sea Level PressureIn,VisibilityMPH,Wind Direction,Wind SpeedMPH,Gust SpeedMPH,PrecipitationIn,Events,Conditions,WindDirDegrees,DateUTC
12:15 AM,34.5,27.5,76,30.07,10.0,SSW,9.2,-,N/A,,Clear,200,2013-01-09 06:15:00
12:35 AM,34.2,27.5,77,30.07,10.0,SSW,8.1,-,N/A,,Clear,200,2013-01-09 06:35:00
12:55 AM,33.8,27.5,78,30.07,10.0,SSW,8.1,-,N/A,,Clear,200,2013-01-09 06:55:00
1:15 AM,33.8,28.0,79,30.06,10.0,SSW,8.1,-,N/A,,Mostly Cloudy,200,2013-01-09 07:15:00
1:35 AM,34.3,28.8,80,30.06,10.0,SSW,5.8,-,N/A,,Overcast,200,2013-01-09 07:35:00
1:55 AM,34.5,29.3,81,30.07,10.0,SSW,8.1,-,N/A,,Mostly Cloudy,200,2013-01-09 07:55:00
2:15 AM,35.4,29.8,80,30.08,10.0,SSW,8.1,-,N/A,,Overcast,210,2013-01-09 08:15:00
2:35 AM,36.9,30.9,79,30.08,10.0,SW,11.5,-,N/A,,Overcast,220,2013-01-09 08:35:00
2:55 AM,37.4,31.1,78,30.08,10.0,SW,12.7,-,N/A,,Light Drizzle,230,2013-01-09 08:55:00
3:15 AM,37.2,31.6,80,30.06,10.0,SSW,11.5,-,N/A,Rain,Rain,210,2013-01-09 09:15:00
3:35 AM,37.0,32.0,82,30.06,10.0,SW,11.5,-,N/A,,Overcast,230,2013-01-09 09:35:00
3:55 AM,37.4,32.2,81,30.07,10.0,SW,10.4,-,N/A,,Overcast,230,2013-01-09 09:55:00
4:15 AM,38.7,32.0,77,30.07,10.0,WSW,16.1,21.9,N/A,,Scattered Clouds,240,2013-01-09 10:15:00
4:35 AM,38.7,32.0,77,30.08,10.0,WSW,13.8,-,N/A,,Clear,250,2013-01-09 10:35:00
4:55 AM,38.3,32.0,78,30.09,10.0,WSW,12.7,-,N/A,,Clear,240,2013-01-09 10:55:00
5:15 AM,37.6,31.5,79,30.10,10.0,WSW,11.5,-,N/A,,Clear,240,2013-01-09 11:15:00
5:35 AM,36.9,31.1,80,30.10,10.0,WSW,11.5,-,N/A,,Clear,240,2013-01-09 11:35:00
5:55 AM,36.3,31.3,82,30.11,10.0,WSW,11.5,-,N/A,,Scattered Clouds,240,2013-01-09 11:55:00
6:15 AM,35.6,30.9,83,30.13,10.0,WSW,11.5,-,N/A,,Scattered Clouds,240,2013-01-09 12:15:00
6:35 AM,35.1,30.4,83,30.14,10.0,WSW,11.5,-,N/A,,Scattered Clouds,240,2013-01-09 12:35:00
6:55 AM,35.2,30.0,81,30.16,10.0,WSW,11.5,16.1,N/A,,Scattered Clouds,250,2013-01-09 12:55:00
7:15 AM,34.9,29.8,82,30.18,10.0,WSW,13.8,19.6,N/A,,Clear,250,2013-01-09 13:15:00
7:35 AM,34.7,29.7,82,30.19,10.0,WSW,11.5,-,N/A,,Clear,250,2013-01-09 13:35:00
7:55 AM,34.9,29.5,81,30.21,10.0,WSW,10.4,-,N/A,,Clear,250,2013-01-09 13:55:00
8:15 AM,34.7,29.7,82,30.21,10.0,WSW,9.2,-,N/A,,Clear,250,2013-01-09 14:15:00
8:35 AM,35.1,29.8,81,30.22,10.0,WSW,9.2,-,N/A,,Clear,250,2013-01-09 14:35:00
8:55 AM,35.6,29.8,80,30.22,10.0,WSW,9.2,-,N/A,,Clear,250,2013-01-09 14:55:00
9:15 AM,35.8,29.8,79,30.23,10.0,WSW,10.4,-,N/A,,Clear,240,2013-01-09 15:15:00
9:35 AM,36.1,29.8,78,30.24,10.0,WSW,9.2,-,N/A,,Clear,240,2013-01-09 15:35:00
9:55 AM,36.7,30.0,77,30.25,10.0,WSW,8.1,-,N/A,,Clear,250,2013-01-09 15:55:00
10:15 AM,37.4,30.2,75,30.25,10.0,WSW,9.2,-,N/A,,Clear,240,2013-01-09 16:15:00
10:35 AM,38.5,30.0,72,30.25,10.0,WSW,12.7,16.1,N/A,,Clear,250,2013-01-09 16:35:00
10:55 AM,39.0,30.2,71,30.25,10.0,WSW,10.4,-,N/A,,Clear,240,2013-01-09 16:55:00
11:15 AM,40.3,30.4,68,30.25,10.0,WSW,10.4,-,N/A,,Clear,240,2013-01-09 17:15:00
11:35 AM,41.4,30.4,65,30.25,10.0,WSW,11.5,-,N/A,,Clear,250,2013-01-09 17:35:00
11:55 AM,42.4,30.2,62,30.24,10.0,West,13.8,-,N/A,,Clear,260,2013-01-09 17:55:00
12:15 PM,43.3,30.0,59,30.25,10.0,West,13.8,18.4,N/A,,Clear,260,2013-01-09 18:15:00
12:35 PM,44.6,29.5,55,30.25,10.0,WSW,13.8,18.4,N/A,,Clear,250,2013-01-09 18:35:00
12:55 PM,45.0,29.1,54,30.26,10.0,WSW,10.4,-,N/A,,Clear,250,2013-01-09 18:55:00
1:15 PM,45.5,27.0,48,30.26,10.0,West,11.5,20.7,N/A,,Clear,260,2013-01-09 19:15:00
1:35 PM,45.9,24.8,44,30.27,10.0,West,15.0,20.7,N/A,,Clear,270,2013-01-09 19:35:00
1:55 PM,46.4,24.8,43,30.28,10.0,West,11.5,17.3,N/A,,Clear,260,2013-01-09 19:55:00
2:15 PM,45.9,25.5,45,30.30,10.0,West,8.1,-,N/A,,Clear,270,2013-01-09 20:15:00
2:35 PM,46.8,21.9,37,30.32,10.0,WNW,8.1,21.9,N/A,,Clear,290,2013-01-09 20:35:00
2:55 PM,46.8,20.7,36,30.32,10.0,WNW,10.4,-,N/A,,Clear,300,2013-01-09 20:55:00
3:15 PM,46.4,18.5,33,30.34,10.0,WNW,11.5,29.9,N/A,,Clear,290,2013-01-09 21:15:00
3:35 PM,46.2,18.5,33,30.35,10.0,WNW,8.1,18.4,N/A,,Clear,290,2013-01-09 21:35:00
3:55 PM,44.8,19.4,36,30.36,10.0,WNW,10.4,19.6,N/A,,Clear,290,2013-01-09 21:55:00
4:15 PM,43.9,18.3,36,30.37,10.0,WNW,6.9,-,N/A,,Clear,290,2013-01-09 22:15:00
4:35 PM,43.0,16.9,35,30.38,10.0,WNW,5.8,16.1,N/A,,Clear,290,2013-01-09 22:35:00
4:55 PM,42.1,16.0,35,30.39,10.0,WNW,5.8,-,N/A,,Clear,300,2013-01-09 22:55:00
5:15 PM,41.2,15.8,36,30.40,10.0,WNW,5.8,-,N/A,,Clear,300,2013-01-09 23:15:00
5:35 PM,40.5,16.9,39,30.40,10.0,NW,10.4,-,N/A,,Clear,310,2013-01-09 23:35:00
5:55 PM,40.1,16.7,39,30.41,10.0,NW,8.1,-,N/A,,Clear,310,2013-01-09 23:55:00
6:15 PM,39.6,17.8,41,30.41,10.0,NW,15.0,19.6,N/A,,Clear,310,2013-01-10 00:15:00
6:35 PM,39.2,19.0,44,30.41,10.0,NW,13.8,19.6,N/A,,Clear,310,2013-01-10 00:35:00
6:55 PM,38.3,19.6,47,30.40,10.0,NW,11.5,19.6,N/A,,Clear,320,2013-01-10 00:55:00
7:15 PM,38.5,19.4,46,30.41,10.0,NW,10.4,-,N/A,,Clear,310,2013-01-10 01:15:00
7:35 PM,37.4,20.3,50,30.41,10.0,WNW,9.2,-,N/A,,Clear,300,2013-01-10 01:35:00
7:55 PM,36.9,21.9,55,30.41,10.0,NW,8.1,-,N/A,,Scattered Clouds,320,2013-01-10 01:55:00
8:15 PM,35.6,23.5,62,30.42,10.0,NW,9.2,-,N/A,,Scattered Clouds,320,2013-01-10 02:15:00
8:35 PM,35.8,23.0,60,30.43,10.0,NW,4.6,-,N/A,,Scattered Clouds,310,2013-01-10 02:35:00
8:55 PM,34.5,23.5,64,30.43,10.0,WNW,3.5,-,N/A,,Clear,300,2013-01-10 02:55:00
9:15 PM,34.7,23.2,63,30.44,10.0,West,3.5,-,N/A,,Scattered Clouds,260,2013-01-10 03:15:00
9:35 PM,31.5,23.2,71,30.45,10.0,West,3.5,-,N/A,,Scattered Clouds,270,2013-01-10 03:35:00
9:55 PM,29.8,22.5,74,30.45,10.0,Calm,Calm,-,N/A,,Scattered Clouds,0,2013-01-10 03:55:00
10:15 PM,27.3,23.5,86,30.46,10.0,SSW,3.5,-,N/A,,Clear,210,2013-01-10 04:15:00
10:35 PM,27.5,22.6,82,30.46,10.0,Calm,Calm,-,N/A,,Clear,0,2013-01-10 04:35:00
10:55 PM,26.1,22.1,85,30.48,10.0,Calm,Calm,-,N/A,,Clear,0,2013-01-10 04:55:00
11:15 PM,24.8,21.9,89,30.48,10.0,Calm,Calm,-,N/A,,Clear,0,2013-01-10 05:15:00
11:35 PM,24.1,21.6,90,30.50,10.0,Calm,Calm,-,N/A,,Clear,0,2013-01-10 05:35:00
11:55 PM,23.2,20.7,90,30.51,10.0,Calm,Calm,-,N/A,,Clear,0,2013-01-10 05:55:00